CW9259 Weather Reports


Display with metric or nautical units.
time (UTC)temp
F
wind
direction
speed
MPH
gust
MPH
rain 1hr
in
rain 24hr
in
rain mn
in
humidity
%
barometer
mb
20260903011558 62 317 0.0 0.0 0.00 0.00 0.00 90 1015.6
20260903010131 63 317 0.0 0.0 0.00 0.00 0.00 89 1015.6
20260903004659 63 315 0.0 0.0 0.00 0.00 0.00 90 1015.6
20260903003134 63 318 0.0 0.0 0.00 0.00 0.00 89 1015.6
20260903001558 63 319 0.0 0.0 0.00 0.00 0.00 89 1015.6
20260903000131 63 319 0.0 0.0 0.00 0.00 0.00 88 1015.6
20260902234605 64 329 0.0 0.0 0.00 0.00 0.00 88 1015.7
20260902233134 64 329 0.0 0.0 0.00 0.00 0.00 88 1015.7
20260902231558 64 318 0.0 0.0 0.00 0.00 0.00 88 1015.6
20260902230001 64 314 0.0 0.0 0.00 0.00 0.00 88 1015.4
20260902224612 64 315 0.0 0.0 0.00 0.00 0.00 88 1015.4
20260902223138 65 314 0.0 0.0 0.00 0.00 0.00 87 1015.4
20260902221605 65 314 0.0 0.0 0.00 0.00 0.00 86 1015.4
20260902220143 66 317 0.0 2.0 0.00 0.00 0.00 86 1015.3
20260902214619 66 316 0.0 4.0 0.00 0.00 0.00 86 1015.2
20260902213136 66 314 0.0 2.0 0.00 0.00 0.00 86 1015.1
20260902211558 66 314 1.0 3.0 0.00 0.00 0.00 86 1015.1
20260902210159 67 317 0.0 2.0 0.00 0.00 0.00 85 1015.0
20260902204607 67 318 0.0 3.0 0.00 0.00 0.00 85 1015.0
20260902203134 67 331 1.0 3.0 0.00 0.00 0.00 85 1015.1
20260902201626 67 165 0.0 0.0 0.00 0.00 0.00 85 1015.0
20260902200139 67 165 0.0 2.0 0.00 0.00 0.00 84 1014.9
20260902194558 68 159 1.0 3.0 0.00 0.00 0.00 84 1014.8
20260902193133 69 158 2.0 5.0 0.00 0.00 0.00 82 1014.7
20260902191558 69 238 1.0 3.0 0.00 0.00 0.00 81 1014.5
20260902190132 70 237 1.0 2.0 0.00 0.00 0.00 81 1014.3
20260902184558 71 237 1.0 3.0 0.00 0.00 0.00 79 1014.2
20260902183126 72 237 0.0 3.0 0.00 0.00 0.00 77 1014.0
20260902181602 73 327.0 255.0 0.00 0.00 0.00 77 1013.9
20260902180142 74 327.0 255.0 0.00 0.00 0.00 76 1014.0
20260902174559 76 327.0 255.0 0.00 0.00 0.00 72 1013.8
20260902173129 79 327.0 255.0 0.00 0.00 0.00 68 1013.7
20260902171558 80 327.0 255.0 0.00 0.00 0.00 67 1013.6
20260902170200 82 327.0 255.0 0.00 0.00 0.00 65 1013.6
20260902164601 84 327.0 255.0 0.00 0.00 0.00 61 1013.4
20260902163141 86 327.0 255.0 0.00 0.00 0.00 52 1013.5
20260902161559 87 327.0 255.0 0.00 0.00 0.00 53 1013.5
20260902160130 87 327.0 255.0 0.00 0.00 0.00 51 1013.6
20260902154602 86 327.0 255.0 0.00 0.00 0.00 53 1013.7
20260902153130 86 327.0 255.0 0.00 0.00 0.00 54 1014.0
20260902151700 86 327.0 255.0 0.00 0.00 0.00 53 1013.9
20260902150059 85 327.0 255.0 0.00 0.00 0.00 54 1014.1
20260902150001 85 327.0 255.0 0.00 0.00 0.00 55 1014.1
20260902144601 85 327.0 255.0 0.00 0.00 0.00 54 1014.3
20260902143132 85 327.0 255.0 0.00 0.00 0.00 55 1014.3
20260902141601 85 327.0 255.0 0.00 0.00 0.00 54 1014.3
20260902140135 85 327.0 255.0 0.00 0.00 0.00 54 1014.4
20260902134600 85 165 2.0 5.0 0.00 0.00 0.00 57 1014.5
20260902133136 85 38 2.0 5.0 0.00 0.00 0.00 58 1014.8
20260902131606 85 122 5.0 10.0 0.00 0.00 0.00 56 1014.8
20260902130139 84 86 4.0 10.0 0.00 0.00 0.00 56 1015.0
20260902124601 84 144 3.0 10.0 0.00 0.00 0.00 60 1015.2
20260902123129 84 203 3.0 9.0 0.00 0.00 0.00 58 1015.3
20260902121608 84 40 1.0 9.0 0.00 0.00 0.00 60 1015.3
20260902120125 83 87 2.0 9.0 0.00 0.00 0.00 58 1015.4
20260902114600 83 15 3.0 6.0 0.00 0.00 0.00 60 1015.6
20260902114502 83 84 4.0 6.0 0.00 0.00 0.00 59 1015.6
20260902113108 82 110 4.0 9.0 0.00 0.00 0.00 61 1015.8
20260902111600 82 185 1.0 8.0 0.00 0.00 0.00 61 1016.0
20260902110137 82 78 3.0 7.0 0.00 0.00 0.00 60 1016.2
20260902104612 81 14 2.0 8.0 0.00 0.00 0.00 64 1016.4
20260902103140 80 128 4.0 7.0 0.00 0.00 0.00 62 1016.6
20260902101603 80 115 2.0 7.0 0.00 0.00 0.00 63 1016.8
20260902100133 79 47 1.0 8.0 0.00 0.00 0.00 63 1016.9
20260902094601 79 9 1.0 4.0 0.00 0.00 0.00 66 1017.0
20260902093138 77 89 0.0 6.0 0.00 0.00 0.00 67 1016.9
20260902091607 76 76 1.0 3.0 0.00 0.00 0.00 66 1016.9
20260902090002 74 24 0.0 2.0 0.00 0.00 0.00 68 1017.1
20260902084607 74 25 0.0 2.0 0.00 0.00 0.00 71 1017.0
20260902083148 73 25 2.0 4.0 0.00 0.00 0.00 71 1017.0
20260902081559 72 27 2.0 3.0 0.00 0.00 0.00 74 1016.9
20260902081502 72 27 2.0 3.0 0.00 0.00 0.00 74 1016.9
20260902080001 71 5 1.0 5.0 0.00 0.00 0.00 73 1016.8
20260902074619 71 14 2.0 4.0 0.00 0.00 0.00 74 1016.6
20260902073129 71 14 0.0 2.0 0.00 0.00 0.00 75 1016.6
20260902071600 71 14 0.0 2.0 0.00 0.00 0.00 77 1016.5
20260902070134 70 14 0.0 2.0 0.00 0.00 0.00 74 1016.5
20260902064559 69 14 1.0 3.0 0.00 0.00 0.00 77 1016.5
20260902063126 68 14 1.0 3.0 0.00 0.00 0.00 79 1016.4
20260902061600 66 14 2.0 3.0 0.00 0.00 0.00 79 1016.3
20260902060003 64 5 2.0 5.0 0.00 0.00 0.00 83 1016.2
20260902054608 63 83 0.0 2.0 0.00 0.00 0.00 91 1016.1
20260902053138 62 332 0.0 2.0 0.00 0.00 0.00 90 1015.9
20260902051619 62 332 0.0 2.0 0.00 0.00 0.00 90 1015.7
20260902050144 62 338 0.0 2.0 0.00 0.00 0.00 89 1015.7
20260902044558 62 343 0.0 2.0 0.00 0.00 0.00 89 1015.6
20260902043124 62 343 1.0 2.0 0.00 0.00 0.00 89 1015.6
20260902041559 62 342 1.0 3.0 0.00 0.00 0.00 88 1015.6
20260902040001 62 344 0.0 0.0 0.00 0.00 0.00 88 1015.5
20260902034600 63 307 0.0 0.0 0.00 0.00 0.00 88 1015.6
20260902033124 63 308 0.0 0.0 0.00 0.00 0.00 88 1015.6
20260902031559 63 306 0.0 0.0 0.00 0.00 0.00 88 1015.5
20260902030132 63 306 0.0 0.0 0.00 0.00 0.00 88 1015.7
20260902024559 63 306 0.0 0.0 0.00 0.00 0.00 88 1015.5
20260902023137 63 306 0.0 0.0 0.00 0.00 0.00 88 1015.4
20260902021602 63 309 0.0 0.0 0.00 0.00 0.00 87 1015.4
20260902020001 64 310 0.0 0.0 0.00 0.00 0.00 86 1015.3
20260902014601 64 317 0.0 0.0 0.00 0.00 0.00 87 1015.3
20260902013100 64 320 0.0 0.0 0.00 0.00 0.00 87 1015.3